Location: Igloolik
(69.3800°N, 81.8000°W)
Time: 08:52:19
(UTC-05:00)

Amateur Radio Satellites - All Passes

Search period start: 23 June 2017 08:22
Search period end: 24 June 2017 08:22
Location: Igloolik, 69.3800°N, 81.8000°W

Satellite Date Start Highest point End Downlink Frequencies (MHz)
Time Altitude Azimuth
DELFI C3 23 Jun 08:27:01 08:28:23 11° 75° (ENE) 08:29:44 145.870
NANOSAT C BR1 23 Jun 08:28:24 08:32:00 27° 36° (NE) 08:35:36 145.865
CUTE-I 23 Jun 08:34:33 08:39:55 70° 304° (NW) 08:45:17 437.470
TIGRISAT 23 Jun 08:36:18 08:41:00 83° 65° (ENE) 08:45:45 435.000
DOVE 4 23 Jun 08:37:03 08:41:17 40° 313° (NW) 08:45:45 437.250
CUBEBUG 2 23 Jun 08:39:53 08:44:39 59° 104° (ESE) 08:49:21 437.445
SEEDS 23 Jun 08:45:27 08:49:38 68° 107° (ESE) 08:53:48 437.485
AO-73 23 Jun 08:47:15 08:51:29 36° 94° (E) 08:55:37 145.935
XW-2A 23 Jun 08:50:24 08:53:53 81° 107° (ESE) 08:57:20 145.665 - 145.685
NUDT-PHONESAT 23 Jun 08:51:06 08:54:38 40° 308° (NW) 08:58:09 437.300
YUBILEINY 23 Jun 08:54:30 09:03:24 80° 255° (WSW) 09:12:14 435.215
Oscar 19 23 Jun 08:57:38 09:01:50 26° 19° (NNE) 09:06:01 437.125/150
CUTE 1.7 + AOD 2 23 Jun 08:57:39 09:01:55 84° 297° (WNW) 09:06:09 437.475
XW-2F 23 Jun 08:58:00 09:01:29 34° 311° (NW) 09:04:56 145.980 - 146.000
RS-15 23 Jun 08:59:55 09:06:07 16° 275° (W) 09:12:14 29.354- 29.394
XW-2D 23 Jun 09:00:01 09:03:29 33° 313° (NW) 09:06:54 145.860 - 145.880
POLYITAN 1 23 Jun 09:02:56 09:06:53 36° 45° (NE) 09:10:51 437.675
LilacSat-2 23 Jun 09:04:54 09:08:20 31° 314° (NW) 09:11:45 437.200
STRAND 1 23 Jun 09:06:44 09:09:38 15° 287° (WNW) 09:12:33 437.568
XW-2B 23 Jun 09:08:58 09:12:22 31° 315° (NW) 09:15:44 145.730 - 145.750
HO-68 23 Jun 09:10:13 09:17:29 82° 117° (ESE) 09:24:43 435.675
QB50P2 23 Jun 09:13:27 09:17:29 41° 48° (NE) 09:21:33 145.880/145.840
UNISAT 6 23 Jun 09:17:51 09:22:29 62° 255° (WSW) 09:27:12 437.425
Oscar 11 23 Jun 09:17:56 09:22:07 43° 99° (E) 09:26:15 .
PRISM 23 Jun 09:18:28 09:22:27 52° 255° (WSW) 09:26:28 437.425
M-CUBED/EXP-1 PRIME 23 Jun 09:19:20 09:21:35 17° 262° (W) 09:23:51 437.505
UWE-3 23 Jun 09:19:31 09:24:15 72° 109° (ESE) 09:28:53 435.000/436.395/437.385
ZACube-1 23 Jun 09:20:38 09:25:11 56° 103° (ESE) 09:29:38 437.345
XW-2C 23 Jun 09:24:22 09:27:38 27° 318° (NW) 09:30:51 145.795 - 145.815
Gurwin Techsat 1B 23 Jun 09:29:13 09:33:40 28° 21° (NNE) 09:38:07 435.225
ITAMSAT 1 23 Jun 09:30:04 09:34:11 24° 358° (N) 09:38:18 435.822/435.867
FO-29 23 Jun 09:33:03 09:39:28 57° 260° (W) 09:46:44 435.910
AIST 2D 23 Jun 09:33:30 09:37:00 56° 60° (ENE) 09:40:31 435.315
EO-79 23 Jun 09:38:47 09:42:56 50° 53° (NE) 09:47:07 145.935-145.965
BUGSAT 1 23 Jun 09:42:02 09:45:45 31° 41° (NE) 09:49:31 437.445
AAUSAT CUBESAT 2 23 Jun 09:44:46 09:48:56 84° 292° (WNW) 09:53:03 437.432
KAITUO 1B 23 Jun 09:45:27 09:48:31 24° 321° (NW) 09:51:33 145.475/437.950
AO-7 23 Jun 09:55:34 10:03:26 48° 3° (N) 10:11:21 .
DUCHIFAT 1 23 Jun 09:56:00 10:00:11 55° 56° (NE) 10:04:23 145.980
DELFI C3 23 Jun 10:00:36 10:04:18 36° 97° (E) 10:07:58 145.870
NANOSAT C BR1 23 Jun 10:02:59 10:07:13 63° 59° (ENE) 10:11:28 145.865
EO-88 23 Jun 10:05:02 10:08:21 30° 95° (E) 10:11:39 145.990 - 145.960
TIGRISAT 23 Jun 10:13:53 10:18:10 34° 267° (W) 10:22:30 435.000
CUTE-I 23 Jun 10:14:39 10:19:29 35° 327° (NNW) 10:24:19 437.470
DOVE 4 23 Jun 10:14:48 10:18:11 21° 336° (NNW) 10:21:43 437.250
CUBEBUG 2 23 Jun 10:16:40 10:21:19 52° 306° (NW) 10:25:56 437.445
SEEDS 23 Jun 10:21:19 10:25:15 41° 310° (NW) 10:29:11 437.485
XW-2A 23 Jun 10:23:22 10:26:25 29° 313° (NW) 10:29:27 145.665 - 145.685
AO-73 23 Jun 10:23:32 10:28:08 77° 297° (WNW) 10:32:37 145.935
NUDT-PHONESAT 23 Jun 10:25:14 10:27:51 18° 330° (NNW) 10:30:26 437.300
XW-2F 23 Jun 10:32:20 10:34:49 17° 334° (NNW) 10:37:18 145.980 - 146.000
CUTE 1.7 + AOD 2 23 Jun 10:33:41 10:37:26 32° 317° (NW) 10:41:11 437.475
XW-2D 23 Jun 10:34:24 10:36:51 17° 335° (NNW) 10:39:18 145.860 - 145.880
Oscar 19 23 Jun 10:35:28 10:40:20 43° 43° (NE) 10:45:11 437.125/150
LO-87 23 Jun 10:36:39 10:39:13 18° 85° (E) 10:41:47 145.935 - 145.965
POLYITAN 1 23 Jun 10:38:08 10:42:27 84° 247° (WSW) 10:46:49 437.675
LilacSat-2 23 Jun 10:39:21 10:41:47 16° 337° (NNW) 10:44:11 437.200
XW-2B 23 Jun 10:43:20 10:45:42 16° 337° (NNW) 10:48:04 145.730 - 145.750
QB50P2 23 Jun 10:48:53 10:53:11 71° 251° (WSW) 10:57:30 145.880/145.840
YUBILEINY 23 Jun 10:51:25 10:59:21 39° 283° (WNW) 11:07:16 435.215
Oscar 11 23 Jun 10:54:10 10:58:29 61° 302° (WNW) 11:02:45 .
PRISM 23 Jun 10:56:00 10:58:38 16° 278° (W) 11:01:17 437.425
UWE-3 23 Jun 10:56:08 11:00:35 43° 311° (NW) 11:04:59 435.000/436.395/437.385
UNISAT 6 23 Jun 10:56:31 11:00:06 21° 277° (W) 11:03:44 437.425
ZACube-1 23 Jun 10:57:04 11:01:32 52° 306° (NW) 11:05:56 437.345
HO-68 23 Jun 10:58:06 11:05:06 56° 322° (NW) 11:12:05 435.675
XW-2C 23 Jun 10:58:41 11:00:53 15° 341° (NNW) 11:03:05 145.795 - 145.815
AIST 2D 23 Jun 11:07:03 11:10:24 37° 262° (W) 11:13:46 435.315
Gurwin Techsat 1B 23 Jun 11:07:44 11:12:50 47° 45° (NE) 11:17:56 435.225
ITAMSAT 1 23 Jun 11:08:07 11:12:32 28° 22° (NNE) 11:16:57 435.822/435.867
ESTCUBE 1 23 Jun 11:12:25 11:16:09 25° 88° (E) 11:19:54 437.505/2401.250
EO-79 23 Jun 11:14:33 11:18:46 54° 256° (WSW) 11:23:01 145.935-145.965
BUGSAT 1 23 Jun 11:16:35 11:20:46 81° 65° (ENE) 11:25:03 437.445
KAITUO 1B 23 Jun 11:19:34 11:21:32 14° 344° (NNW) 11:23:30 145.475/437.950
AAUSAT CUBESAT 2 23 Jun 11:20:26 11:24:05 31° 317° (NW) 11:27:43 437.432
FO-29 23 Jun 11:20:52 11:26:11 25° 287° (WNW) 11:32:01 435.910
VELOX 1 23 Jun 11:25:46 11:28:18 15° 78° (ENE) 11:30:50 145.980
DUCHIFAT 1 23 Jun 11:31:51 11:36:00 48° 258° (WSW) 11:40:10 145.980
DELFI C3 23 Jun 11:35:26 11:39:21 65° 299° (WNW) 11:43:15 145.870
EO-88 23 Jun 11:38:41 11:42:23 72° 297° (WNW) 11:46:02 145.990 - 145.960
NANOSAT C BR1 23 Jun 11:39:06 11:43:10 42° 261° (W) 11:47:17 145.865
AO-7 23 Jun 11:47:13 11:55:21 59° 29° (NNE) 12:03:32 .
DOVE 4 23 Jun 11:51:50 11:54:42 17° 359° (N) 11:57:38 437.250
CUBEBUG 2 23 Jun 11:53:19 11:57:15 26° 329° (NNW) 12:01:10 437.445
CUTE-I 23 Jun 11:54:14 11:58:31 25° 351° (N) 12:02:49 437.470
DX 1 23 Jun 11:54:19 11:55:56 12° 74° (ENE) 11:57:32 434.975-435.025
TIGRISAT 23 Jun 11:54:24 11:56:17 12° 290° (WNW) 11:58:11 435.000
XW-2A 23 Jun 11:56:27 11:58:22 14° 335° (NNW) 12:00:16 145.665 - 145.685
SEEDS 23 Jun 11:57:07 12:00:12 20° 333° (NNW) 12:03:16 437.485
NUDT-PHONESAT 23 Jun 11:59:00 12:00:37 12° 353° (N) 12:02:14 437.300
AO-73 23 Jun 11:59:55 12:03:58 32° 320° (NW) 12:07:57 145.935
SPROUT 23 Jun 12:06:05 12:09:38 24° 88° (E) 12:13:12 437.525
XW-2F 23 Jun 12:06:08 12:07:48 13° 357° (N) 12:09:27 145.980 - 146.000
XW-2D 23 Jun 12:08:12 12:09:53 13° 358° (N) 12:11:33 145.860 - 145.880
CUTE 1.7 + AOD 2 23 Jun 12:09:31 12:12:22 18° 340° (NNW) 12:15:13 437.475
LO-87 23 Jun 12:09:43 12:13:20 65° 107° (ESE) 12:16:58 145.935 - 145.965
LilacSat-2 23 Jun 12:13:09 12:14:53 13° 360° (N) 12:16:36 437.200
Oscar 19 23 Jun 12:14:17 12:19:29 83° 247° (WSW) 12:24:40 437.125/150
POLYITAN 1 23 Jun 12:15:10 12:18:50 27° 270° (W) 12:22:32 437.675
UKube-1 23 Jun 12:16:36 12:18:30 13° 75° (ENE) 12:20:23 .
XW-2B 23 Jun 12:17:01 12:18:43 13° 360° (N) 12:20:23 145.730 - 145.750
50 SAT 23 Jun 12:18:50 12:20:50 15° 84° (E) 12:22:50 437.505
QB50P2 23 Jun 12:26:16 12:29:41 23° 273° (W) 12:33:08 145.880/145.840
Oscar 11 23 Jun 12:30:28 12:34:06 26° 324° (NW) 12:37:42 .
XW-2C 23 Jun 12:32:10 12:33:53 13° 4° (N) 12:35:35 145.795 - 145.815
UWE-3 23 Jun 12:32:35 12:36:15 23° 334° (NNW) 12:39:53 435.000/436.395/437.385
ZACube-1 23 Jun 12:33:26 12:37:10 25° 329° (NNW) 12:40:51 437.345
AIST 2D 23 Jun 12:43:41 12:44:37 11° 284° (WNW) 12:45:33 435.315
HO-68 23 Jun 12:45:25 12:51:58 39° 348° (NNW) 12:58:31 435.675
ITAMSAT 1 23 Jun 12:46:13 12:51:15 49° 46° (NE) 12:56:19 435.822/435.867
Gurwin Techsat 1B 23 Jun 12:47:20 12:52:41 76° 249° (WSW) 12:58:04 435.225
YUBILEINY 23 Jun 12:48:10 12:53:46 19° 311° (NW) 12:59:22 435.215
ESTCUBE 1 23 Jun 12:49:08 12:53:40 77° 111° (ESE) 12:58:09 437.505/2401.250
EO-79 23 Jun 12:52:32 12:55:28 18° 279° (W) 12:58:25 145.935-145.965
KAITUO 1B 23 Jun 12:52:41 12:54:19 12° 7° (N) 12:55:57 145.475/437.950
BUGSAT 1 23 Jun 12:52:48 12:56:34 32° 266° (W) 13:00:25 437.445
AAUSAT CUBESAT 2 23 Jun 12:55:56 12:58:38 17° 340° (NNW) 13:01:20 437.432
VELOX 1 23 Jun 13:01:38 13:05:53 44° 101° (E) 13:10:08 145.980
DUCHIFAT 1 23 Jun 13:10:02 13:12:40 16° 281° (W) 13:15:20 145.980
DELFI C3 23 Jun 13:10:25 13:13:40 25° 322° (NW) 13:16:54 145.870
EO-88 23 Jun 13:12:36 13:15:40 25° 319° (NW) 13:18:42 145.990 - 145.960
FO-29 23 Jun 13:12:38 13:14:17 11° 314° (NW) 13:15:59 435.910
PCSat 23 Jun 13:15:43 13:20:06 25° 125° (SE) 13:24:29 145.827
NANOSAT C BR1 23 Jun 13:17:46 13:20:01 14° 284° (WNW) 13:22:17 145.865
DOVE 4 23 Jun 13:27:55 13:31:11 21° 23° (NNE) 13:34:34 437.250
XW-2A 23 Jun 13:29:17 13:29:57 10° 357° (N) 13:30:37 145.665 - 145.685
DX 1 23 Jun 13:29:23 13:33:25 35° 97° (E) 13:37:27 434.975-435.025
CUBEBUG 2 23 Jun 13:29:27 13:32:42 19° 353° (N) 13:35:59 437.445
NUDT-PHONESAT 23 Jun 13:31:22 13:33:18 14° 16° (NNE) 13:35:14 437.300
SEEDS 23 Jun 13:32:21 13:34:44 15° 356° (N) 13:37:06 437.485
CUTE-I 23 Jun 13:33:00 13:37:23 26° 16° (NNE) 13:41:47 437.470
AO-73 23 Jun 13:36:00 13:39:13 19° 343° (NNW) 13:42:25 145.935
XW-2F 23 Jun 13:38:31 13:40:44 15° 20° (NNE) 13:42:56 145.980 - 146.000
AO-7 23 Jun 13:39:33 13:47:58 87° 238° (WSW) 13:56:25 .
XW-2D 23 Jun 13:40:35 13:42:51 15° 21° (NNE) 13:45:08 145.860 - 145.880
SPROUT 23 Jun 13:41:51 13:46:13 77° 112° (ESE) 13:50:33 437.525
LO-87 23 Jun 13:43:19 13:46:41 36° 309° (NW) 13:50:04 145.935 - 145.965
CUTE 1.7 + AOD 2 23 Jun 13:44:31 13:46:59 15° 4° (N) 13:49:26 437.475
LilacSat-2 23 Jun 13:45:34 13:47:57 16° 23° (NNE) 13:50:21 437.200
XW-2B 23 Jun 13:49:20 13:51:43 16° 23° (NNE) 13:54:05 145.730 - 145.750
50 SAT 23 Jun 13:51:00 13:54:22 54° 106° (ESE) 13:57:44 437.505
UKube-1 23 Jun 13:51:42 13:55:46 37° 98° (E) 13:59:49 .
Oscar 19 23 Jun 13:54:57 13:59:30 31° 269° (W) 14:04:04 437.125/150
XW-2C 23 Jun 14:04:21 14:06:55 17° 27° (NNE) 14:09:28 145.795 - 145.815
Oscar 11 23 Jun 14:06:23 14:09:12 17° 348° (NNW) 14:12:01 .
UWE-3 23 Jun 14:08:23 14:11:30 18° 357° (N) 14:14:36 435.000/436.395/437.385
ZACube-1 23 Jun 14:09:16 14:12:19 18° 352° (N) 14:15:21 437.345
ITUPSAT 1 23 Jun 14:09:40 14:12:52 17° 79° (E) 14:16:02 437.325
MOZHAYETS 4 23 Jun 14:14:03 14:16:42 15° 75° (ENE) 14:19:21
BEESAT 23 Jun 14:21:16 14:24:47 20° 82° (E) 14:28:15 436.000
KAITUO 1B 23 Jun 14:24:36 14:27:13 18° 29° (NNE) 14:29:48 145.475/437.950
ITAMSAT 1 23 Jun 14:25:27 14:30:41 71° 249° (WSW) 14:35:57 435.822/435.867
ESTCUBE 1 23 Jun 14:26:07 14:30:19 40° 314° (NW) 14:34:31 437.505/2401.250
Gurwin Techsat 1B 23 Jun 14:28:53 14:33:28 28° 272° (W) 14:38:05 435.225
AAUSAT CUBESAT 2 23 Jun 14:30:38 14:32:53 15° 3° (N) 14:35:09 437.432
HO-68 23 Jun 14:32:00 14:38:34 40° 14° (NNE) 14:45:08 435.675
BUGSAT 1 23 Jun 14:32:34 14:33:17 10° 289° (WNW) 14:34:00 437.445
VELOX 1 23 Jun 14:38:12 14:42:35 63° 303° (WNW) 14:46:58 145.980
DELFI C3 23 Jun 14:45:12 14:47:28 15° 344° (NNW) 14:49:43 145.870
YUBILEINY 23 Jun 14:45:27 14:46:52 10° 340° (NNW) 14:48:19 435.215
EO-88 23 Jun 14:46:28 14:48:24 14° 342° (NNW) 14:50:21 145.990 - 145.960
PCSat 23 Jun 14:57:24 15:02:39 50° 149° (SSE) 15:07:54 145.827
XW-2A 23 Jun 14:59:55 15:01:30 13° 20° (NNE) 15:03:06 145.665 - 145.685
NUDT-PHONESAT 23 Jun 15:03:11 15:06:12 23° 39° (NE) 15:09:15 437.300
DOVE 4 23 Jun 15:04:04 15:08:03 39° 47° (NE) 15:12:16 437.250
CUBEBUG 2 23 Jun 15:04:38 15:08:03 20° 16° (NNE) 15:11:30 437.445
DX 1 23 Jun 15:05:37 15:10:01 77° 298° (WNW) 15:14:23 434.975-435.025
SEEDS 23 Jun 15:06:26 15:09:12 17° 19° (NNE) 15:11:58 437.485
XW-2F 23 Jun 15:10:41 15:13:57 27° 42° (NE) 15:17:12 145.980 - 146.000
AO-73 23 Jun 15:11:13 15:14:12 17° 6° (N) 15:17:11 145.935
CUTE-I 23 Jun 15:11:33 15:16:31 41° 40° (NE) 15:21:34 437.470
XW-2D 23 Jun 15:12:50 15:16:09 28° 44° (NE) 15:19:28 145.860 - 145.880
LO-87 23 Jun 15:17:02 15:19:24 17° 331° (NNW) 15:21:48 145.935 - 145.965
SPROUT 23 Jun 15:17:57 15:21:58 39° 313° (NW) 15:26:00 437.525
LilacSat-2 23 Jun 15:17:58 15:21:23 30° 45° (NE) 15:24:48 437.200
CUTE 1.7 + AOD 2 23 Jun 15:18:32 15:21:39 20° 27° (NNE) 15:24:46 437.475
XW-2B 23 Jun 15:21:39 15:25:03 30° 45° (NE) 15:28:26 145.730 - 145.750
50 SAT 23 Jun 15:23:56 15:27:08 38° 308° (NW) 15:30:21 437.505
UKube-1 23 Jun 15:27:48 15:32:07 71° 301° (WNW) 15:36:27 .
AO-7 23 Jun 15:33:47 15:41:43 45° 262° (W) 15:49:43 .
XW-2C 23 Jun 15:36:48 15:40:20 35° 49° (NE) 15:43:52 145.795 - 145.815
Oscar 19 23 Jun 15:39:04 15:40:34 11° 294° (WNW) 15:42:05 437.125/150
SO-50 23 Jun 15:39:55 15:42:54 17° 130° (SE) 15:45:52 436.795
Oscar 11 23 Jun 15:41:19 15:44:06 17° 11° (N) 15:46:53 .
UWE-3 23 Jun 15:43:14 15:46:43 21° 21° (NNE) 15:50:12 435.000/436.395/437.385
ZACube-1 23 Jun 15:44:08 15:47:20 19° 15° (NNE) 15:50:32 437.345
ITUPSAT 1 23 Jun 15:47:09 15:51:52 48° 102° (ESE) 15:56:31 437.325
MOZHAYETS 4 23 Jun 15:50:39 15:55:06 43° 99° (E) 15:59:29
KAITUO 1B 23 Jun 15:56:57 16:00:31 39° 52° (NE) 16:04:04 145.475/437.950
BEESAT 23 Jun 15:58:50 16:03:35 55° 105° (ESE) 16:08:18 436.000
ESTCUBE 1 23 Jun 16:02:55 16:06:20 22° 337° (NNW) 16:09:46 437.505/2401.250
AAUSAT CUBESAT 2 23 Jun 16:04:14 16:07:11 19° 26° (NNE) 16:10:08 437.432
KKS-1 23 Jun 16:05:10 16:08:18 18° 82° (E) 16:11:25 437.445
ITAMSAT 1 23 Jun 16:06:38 16:11:02 26° 273° (W) 16:15:27 435.822/435.867
Gurwin Techsat 1B 23 Jun 16:14:21 16:15:20 10° 297° (WNW) 16:16:18 435.225
VELOX 1 23 Jun 16:14:47 16:18:33 28° 326° (NW) 16:22:18 145.980
HO-68 23 Jun 16:18:27 16:25:28 57° 40° (NE) 16:32:30 435.675
DELFI C3 23 Jun 16:19:01 16:21:01 14° 8° (N) 16:23:02 145.870
EO-88 23 Jun 16:19:27 16:20:53 12° 4° (N) 16:22:19 145.990 - 145.960
CUBESAT XI-V 23 Jun 16:25:10 16:29:14 29° 90° (E) 16:33:15 437.345
XW-2A 23 Jun 16:30:30 16:33:21 24° 42° (NE) 16:36:11 145.665 - 145.685
NUDT-PHONESAT 23 Jun 16:35:54 16:39:38 62° 61° (ENE) 16:43:23 437.300
CUBEBUG 2 23 Jun 16:39:29 16:43:40 32° 39° (NE) 16:47:54 437.445
SEEDS 23 Jun 16:40:16 16:43:58 30° 42° (NE) 16:47:39 437.485
PCSat 23 Jun 16:40:18 16:45:44 70° 174° (S) 16:51:10 145.827
DOVE 4 23 Jun 16:41:22 16:45:37 75° 251° (WSW) 16:50:07 437.250
STARS 23 Jun 16:41:37 16:44:45 18° 83° (E) 16:47:53 437.465
DX 1 23 Jun 16:41:58 16:45:49 31° 322° (NW) 16:49:41 434.975-435.025
XW-2F 23 Jun 16:43:53 16:47:44 77° 64° (ENE) 16:51:33 145.980 - 146.000
AO-73 23 Jun 16:45:37 16:49:17 24° 30° (NNE) 16:52:56 145.935
XW-2D 23 Jun 16:46:10 16:50:02 82° 64° (ENE) 16:53:54 145.860 - 145.880
LO-87 23 Jun 16:50:25 16:51:44 12° 354° (N) 16:53:02 145.935 - 145.965
CUTE-I 23 Jun 16:50:56 16:56:19 89° 63° (ENE) 17:01:44 437.470
LilacSat-2 23 Jun 16:51:30 16:55:24 89° 64° (ENE) 16:59:17 437.200
CUTE 1.7 + AOD 2 23 Jun 16:52:45 16:56:44 40° 50° (NE) 17:00:43 437.475
SPROUT 23 Jun 16:53:53 16:57:05 21° 336° (NNW) 17:00:17 437.525
XW-2B 23 Jun 16:55:06 16:58:59 90° 309° (NW) 17:02:50 145.730 - 145.750
50 SAT 23 Jun 16:57:04 16:59:18 17° 330° (NNW) 17:01:31 437.505
UKube-1 23 Jun 17:03:59 17:07:44 30° 323° (NW) 17:11:30 .
XW-2C 23 Jun 17:10:31 17:14:23 73° 251° (WSW) 17:18:15 145.795 - 145.815
Oscar 11 23 Jun 17:15:36 17:19:10 25° 34° (NE) 17:22:45 .
UWE-3 23 Jun 17:17:59 17:22:15 36° 44° (NE) 17:26:33 435.000/436.395/437.385
SO-50 23 Jun 17:18:17 17:22:23 34° 153° (SSE) 17:26:29 436.795
ZACube-1 23 Jun 17:18:36 17:22:36 30° 39° (NE) 17:26:37 437.345
ITUPSAT 1 23 Jun 17:25:07 17:29:55 63° 305° (NW) 17:34:41 437.325
MOZHAYETS 4 23 Jun 17:27:55 17:32:33 67° 301° (WNW) 17:37:07
KAITUO 1B 23 Jun 17:30:41 17:34:28 63° 254° (WSW) 17:38:14 145.475/437.950
AO-7 23 Jun 17:31:05 17:36:58 20° 289° (WNW) 17:42:53 .
BEESAT 23 Jun 17:36:45 17:41:29 56° 308° (NW) 17:46:10 436.000
AAUSAT CUBESAT 2 23 Jun 17:38:02 17:41:53 38° 49° (NE) 17:45:43 437.432
ESTCUBE 1 23 Jun 17:39:01 17:41:59 18° 0° (N) 17:44:58 437.505/2401.250
STRAND 1 23 Jun 17:41:05 17:42:42 11° 66° (ENE) 17:44:19 437.568
KKS-1 23 Jun 17:41:24 17:45:50 54° 105° (ESE) 17:50:14 437.445
VELOX 1 23 Jun 17:50:58 17:53:59 18° 349° (N) 17:57:01 145.980
EO-88 23 Jun 17:51:02 17:53:26 17° 27° (NNE) 17:55:49 145.990 - 145.960
DELFI C3 23 Jun 17:51:48 17:54:41 20° 31° (NNE) 17:57:35 145.870
XW-2A 23 Jun 18:02:15 18:05:43 73° 64° (ENE) 18:09:12 145.665 - 145.685
CUBESAT XI-V 23 Jun 18:02:34 18:07:13 86° 112° (ESE) 18:11:50 437.345
HO-68 23 Jun 18:05:54 18:13:09 79° 244° (WSW) 18:20:25 435.675
NUDT-PHONESAT 23 Jun 18:10:16 18:13:47 36° 262° (W) 18:17:19 437.300
SEEDS 23 Jun 18:15:06 18:19:19 81° 64° (ENE) 18:23:32 437.485
CUBEBUG 2 23 Jun 18:15:09 18:19:51 75° 62° (ENE) 18:24:39 437.445
STARS 23 Jun 18:17:39 18:22:02 55° 105° (ESE) 18:26:25 437.465
DX 1 23 Jun 18:18:00 18:21:06 19° 345° (NNW) 18:24:11 434.975-435.025
XW-2F 23 Jun 18:18:50 18:22:15 30° 266° (W) 18:25:40 145.980 - 146.000
AO-73 23 Jun 18:20:24 18:24:49 48° 52° (NE) 18:29:14 145.935
DOVE 4 23 Jun 18:20:38 18:24:07 23° 275° (W) 18:27:42 437.250
XW-2D 23 Jun 18:21:17 18:24:38 28° 267° (W) 18:28:01 145.860 - 145.880
LO-87 23 Jun 18:22:13 18:23:57 13° 17° (NNE) 18:25:41 145.935 - 145.965
PCSat 23 Jun 18:23:34 18:28:58 63° 198° (SSW) 18:34:20 145.827
LilacSat-2 23 Jun 18:26:51 18:30:10 26° 269° (W) 18:33:27 437.200
YUBILEINY 23 Jun 18:27:35 18:32:10 16° 41° (NE) 18:36:46 435.215
CUTE 1.7 + AOD 2 23 Jun 18:28:12 18:32:28 71° 252° (WSW) 18:36:44 437.475
SPROUT 23 Jun 18:29:09 18:31:50 16° 359° (N) 18:34:30 437.525
50 SAT 23 Jun 18:30:06 18:31:02 11° 352° (N) 18:31:59 437.505
XW-2B 23 Jun 18:30:24 18:33:40 25° 269° (W) 18:36:55 145.730 - 145.750
CUTE-I 23 Jun 18:32:04 18:36:58 36° 266° (W) 18:41:56 437.470
UKube-1 23 Jun 18:39:49 18:42:49 19° 346° (NNW) 18:45:50 .
FO-29 23 Jun 18:41:04 18:42:58 11° 46° (NE) 18:44:53 435.910
XW-2C 23 Jun 18:46:14 18:49:13 21° 273° (W) 18:52:12 145.795 - 145.815
Oscar 11 23 Jun 18:50:29 18:54:46 58° 57° (ENE) 18:59:03 .
UWE-3 23 Jun 18:53:43 18:58:25 89° 78° (ENE) 19:03:09 435.000/436.395/437.385
ZACube-1 23 Jun 18:53:51 18:58:26 71° 61° (ENE) 19:03:02 437.345
SO-50 23 Jun 18:57:57 19:02:18 46° 177° (S) 19:06:38 436.795
ITUPSAT 1 23 Jun 19:03:02 19:07:13 30° 328° (NNW) 19:11:24 437.325
MOZHAYETS 4 23 Jun 19:05:12 19:09:13 29° 324° (NW) 19:13:12
KAITUO 1B 23 Jun 19:06:31 19:09:11 18° 276° (W) 19:11:52 145.475/437.950
AAUSAT CUBESAT 2 23 Jun 19:13:05 19:17:12 72° 250° (WSW) 19:21:22 437.432
ESTCUBE 1 23 Jun 19:14:12 19:17:38 22° 24° (NNE) 19:21:04 437.505/2401.250
BEESAT 23 Jun 19:14:35 19:18:39 28° 331° (NNW) 19:22:42 436.000
KKS-1 23 Jun 19:18:06 19:22:29 53° 307° (NW) 19:26:52 437.445
STRAND 1 23 Jun 19:19:02 19:23:38 31° 91° (E) 19:28:13 437.568
RS-15 23 Jun 19:21:48 19:28:47 18° 88° (E) 19:35:45 29.354- 29.394
EO-88 23 Jun 19:22:58 19:26:21 35° 49° (NE) 19:29:44 145.990 - 145.960
DELFI C3 23 Jun 19:25:03 19:28:48 44° 53° (NE) 19:32:34 145.870
VELOX 1 23 Jun 19:26:13 19:29:15 19° 12° (NNE) 19:32:19 145.980
XW-2A 23 Jun 19:35:45 19:38:48 28° 266° (W) 19:41:52 145.665 - 145.685
CUBESAT XI-V 23 Jun 19:40:06 19:44:22 37° 316° (NW) 19:48:36 437.345
NUDT-PHONESAT 23 Jun 19:47:39 19:48:46 11° 285° (WNW) 19:49:53 437.300
SEEDS 23 Jun 19:51:40 19:55:28 31° 267° (W) 19:59:14 437.485
CUBEBUG 2 23 Jun 19:52:27 19:56:51 39° 265° (W) 20:01:21 437.445
DX 1 23 Jun 19:53:11 19:56:07 18° 8° (N) 19:59:03 434.975-435.025
LO-87 23 Jun 19:53:33 19:56:25 23° 39° (NE) 19:59:19 145.935 - 145.965
STARS 23 Jun 19:54:08 19:58:28 52° 308° (NW) 20:02:48 437.465
HO-68 23 Jun 19:55:23 20:01:56 36° 270° (W) 20:08:32 435.675
AO-73 23 Jun 19:56:29 20:01:03 62° 255° (WSW) 20:05:37 145.935
50 SAT 23 Jun 20:01:22 20:02:40 12° 15° (NNE) 20:03:58 437.505
SPROUT 23 Jun 20:03:26 20:06:34 20° 22° (NNE) 20:09:42 437.525
CUTE 1.7 + AOD 2 23 Jun 20:05:40 20:09:02 22° 274° (W) 20:12:23 437.475
PCSat 23 Jun 20:06:51 20:11:51 38° 222° (SW) 20:16:49 145.827
UKube-1 23 Jun 20:14:47 20:17:42 18° 10° (N) 20:20:37 .
CUTE-I 23 Jun 20:16:06 20:18:41 13° 291° (WNW) 20:21:17 437.470
YUBILEINY 23 Jun 20:18:47 20:26:09 31° 69° (ENE) 20:33:31 435.215
FO-29 23 Jun 20:25:06 20:31:03 25° 73° (ENE) 20:37:13 435.910
Oscar 11 23 Jun 20:26:51 20:31:04 47° 259° (W) 20:35:19 .
ZACube-1 23 Jun 20:30:42 20:35:03 40° 264° (W) 20:39:24 437.345
UWE-3 23 Jun 20:31:14 20:35:25 31° 269° (W) 20:39:38 435.000/436.395/437.385
SO-50 23 Jun 20:38:03 20:42:16 39° 200° (SSW) 20:46:29 436.795
ITUPSAT 1 23 Jun 20:40:26 20:44:01 21° 352° (N) 20:47:36 437.325
MOZHAYETS 4 23 Jun 20:42:05 20:45:21 19° 348° (NNW) 20:48:37
PRISM 23 Jun 20:46:17 20:47:40 11° 75° (ENE) 20:49:03 437.425
ESTCUBE 1 23 Jun 20:49:26 20:53:39 41° 47° (NE) 20:57:53 437.505/2401.250
AAUSAT CUBESAT 2 23 Jun 20:50:07 20:53:22 22° 274° (W) 20:56:38 437.432
BEESAT 23 Jun 20:51:50 20:55:22 21° 355° (N) 20:58:54 436.000
KKS-1 23 Jun 20:54:45 20:58:26 26° 330° (NNW) 21:02:08 437.445
UNISAT 6 23 Jun 20:55:08 20:58:07 16° 76° (ENE) 21:01:05 437.425
EO-88 23 Jun 20:56:12 20:59:54 71° 251° (WSW) 21:03:36 145.990 - 145.960
STRAND 1 23 Jun 20:58:17 21:03:31 83° 115° (ESE) 21:08:43 437.568
DELFI C3 23 Jun 20:59:42 21:03:35 56° 255° (WSW) 21:07:29 145.870
VELOX 1 23 Jun 21:00:57 21:04:43 29° 36° (NE) 21:08:30 145.980
CUBESAT XI-V 23 Jun 21:17:25 21:20:52 21° 339° (NNW) 21:24:19 437.345
AO-85 23 Jun 21:17:56 21:18:23 10° 123° (ESE) 21:18:50 145.980
LO-87 23 Jun 21:25:51 21:29:24 63° 62° (ENE) 21:33:01 145.935 - 145.965
RS-15 23 Jun 21:26:44 21:37:26 38° 117° (ESE) 21:48:06 29.354- 29.394
DX 1 23 Jun 21:27:42 21:31:17 26° 31° (NNE) 21:34:53 434.975-435.025
STARS 23 Jun 21:30:34 21:34:12 25° 330° (NNW) 21:37:50 437.465
50 SAT 23 Jun 21:31:56 21:34:30 20° 37° (NE) 21:37:05 437.505
SEEDS 23 Jun 21:32:05 21:32:29 10° 290° (WNW) 21:32:55 437.485
CUBEBUG 2 23 Jun 21:32:21 21:34:48 14° 288° (WNW) 21:37:16 437.445
AO-73 23 Jun 21:34:39 21:38:09 21° 277° (W) 21:41:40 145.935
SPROUT 23 Jun 21:37:41 21:41:38 36° 45° (NE) 21:45:37 437.525
HO-68 23 Jun 21:48:02 21:52:05 15° 296° (WNW) 21:56:07 435.675
UKube-1 23 Jun 21:49:07 21:52:43 26° 33° (NNE) 21:56:20 .
TIGRISAT 23 Jun 21:49:54 21:54:00 28° 89° (E) 21:58:04 435.000
PCSat 23 Jun 21:50:39 21:54:01 17° 246° (WSW) 21:57:24 145.827
Oscar 11 23 Jun 22:05:37 22:08:16 16° 282° (WNW) 22:10:56 .
ZACube-1 23 Jun 22:10:07 22:12:34 14° 287° (WNW) 22:15:01 437.345
FO-29 23 Jun 22:10:27 22:17:44 53° 98° (E) 22:25:25 435.910
UWE-3 23 Jun 22:11:59 22:13:22 11° 293° (WNW) 22:14:46 435.000/436.395/437.385
YUBILEINY 23 Jun 22:12:56 22:21:37 65° 96° (E) 22:30:22 435.215
M-CUBED/EXP-1 PRIME 23 Jun 22:16:16 22:19:15 26° 106° (ESE) 22:22:22 437.505
ITUPSAT 1 23 Jun 22:16:58 22:20:41 23° 15° (NNE) 22:24:24 437.325
MOZHAYETS 4 23 Jun 22:18:02 22:21:17 19° 11° (NNE) 22:24:32
SO-50 23 Jun 22:18:27 22:21:55 22° 223° (SW) 22:25:23 436.795
AIST 2D 23 Jun 22:18:37 22:19:55 12° 77° (ENE) 22:21:11 435.315
PRISM 23 Jun 22:20:21 22:24:09 36° 98° (E) 22:27:57 437.425
QB50P2 23 Jun 22:20:42 22:21:44 11° 71° (ENE) 22:22:46 145.880/145.840
O/OREOS (USA 219) 23 Jun 22:20:46 22:24:33 26° 116° (ESE) 22:28:19 437.305
ESTCUBE 1 23 Jun 22:25:48 22:30:20 76° 250° (WSW) 22:34:51 437.505/2401.250
BEESAT 23 Jun 22:28:13 22:31:59 23° 18° (NNE) 22:35:45 436.000
KKS-1 23 Jun 22:30:53 22:33:57 19° 353° (N) 22:37:01 437.445
UNISAT 6 23 Jun 22:31:25 22:36:00 46° 100° (E) 22:40:30 437.425
EO-88 23 Jun 22:31:27 22:34:13 20° 273° (W) 22:36:59 145.990 - 145.960
BEESAT 3 23 Jun 22:31:52 22:34:37 18° 134° (SE) 22:37:22 437.485
VELOX 1 23 Jun 22:36:21 22:40:42 66° 59° (ENE) 22:45:06 145.980
DELFI C3 23 Jun 22:36:34 22:39:12 17° 278° (W) 22:41:50 145.870
STRAND 1 23 Jun 22:37:38 22:42:31 43° 317° (NW) 22:47:23 437.568
EO-79 23 Jun 22:45:09 22:47:27 14° 76° (ENE) 22:49:42 145.935-145.965
CUBESAT XI-V 23 Jun 22:53:56 22:57:02 18° 3° (N) 23:00:08 437.345
AO-85 23 Jun 22:54:22 22:57:36 25° 145° (SE) 23:00:52 145.980
LO-87 23 Jun 22:59:49 23:03:07 33° 263° (W) 23:06:27 145.935 - 145.965
DUCHIFAT 1 23 Jun 23:01:32 23:04:05 15° 78° (ENE) 23:06:36 145.980
DX 1 23 Jun 23:02:39 23:06:54 56° 54° (NE) 23:11:11 434.975-435.025
50 SAT 23 Jun 23:03:29 23:06:49 56° 59° (ENE) 23:10:10 437.505
STARS 23 Jun 23:06:28 23:09:29 18° 354° (N) 23:12:30 437.465
NANOSAT C BR1 23 Jun 23:08:46 23:11:40 17° 81° (E) 23:14:33 145.865
SPROUT 23 Jun 23:13:02 23:17:21 83° 250° (WSW) 23:21:42 437.525
UKube-1 23 Jun 23:23:58 23:28:13 59° 56° (NE) 23:32:29 .
BEESAT 2 23 Jun 23:25:46 23:28:44 20° 137° (SE) 23:31:43 435.950
TIGRISAT 23 Jun 23:26:34 23:31:21 82° 112° (ESE) 23:36:03 435.000
RS-15 23 Jun 23:36:00 23:48:00 61° 147° (SSE) 23:59:51 29.354- 29.394
POLYITAN 1 23 Jun 23:44:17 23:48:00 27° 91° (E) 23:51:43 437.675
AIST 2D 23 Jun 23:50:41 23:54:05 40° 100° (E) 23:57:26 435.315
M-CUBED/EXP-1 PRIME 23 Jun 23:50:41 23:54:07 87° 307° (NW) 23:57:44 437.505
ITUPSAT 1 23 Jun 23:53:13 23:57:35 36° 39° (NE) 00:02:00 437.325
MOZHAYETS 4 23 Jun 23:53:26 23:57:24 29° 35° (NE) 00:01:23
QB50P2 23 Jun 23:54:58 23:58:53 32° 94° (E) 00:02:46 145.880/145.840
PRISM 23 Jun 23:55:40 23:59:46 70° 300° (WNW) 00:03:51 437.425
FO-29 23 Jun 23:55:50 00:03:15 80° 301° (WNW) 00:11:08 435.910
O/OREOS (USA 219) 23 Jun 23:58:54 00:03:25 66° 140° (SE) 00:07:54 437.305
ESTCUBE 1 24 Jun 00:04:06 00:07:50 25° 272° (W) 00:11:35 437.505/2401.250
BEESAT 24 Jun 00:04:27 00:08:54 39° 42° (NE) 00:13:21 436.000
KKS-1 24 Jun 00:06:04 00:09:20 20° 17° (NNE) 00:12:38 437.445
BEESAT 3 24 Jun 00:07:41 00:11:22 34° 157° (SSE) 00:15:04 437.485
UNISAT 6 24 Jun 00:08:14 00:12:56 64° 302° (WNW) 00:17:35 437.425
YUBILEINY 24 Jun 00:09:51 00:18:40 67° 304° (NW) 00:27:33 435.215
Oscar 19 24 Jun 00:11:28 00:14:22 15° 73° (ENE) 00:17:14 437.125/150
VELOX 1 24 Jun 00:13:17 00:17:27 41° 261° (W) 00:21:40 145.980
STRAND 1 24 Jun 00:16:38 00:20:51 26° 341° (NNW) 00:25:05 437.568
BUGSAT 1 24 Jun 00:19:21 00:22:40 21° 86° (E) 00:25:59 437.445
EO-79 24 Jun 00:20:13 00:24:20 42° 99° (E) 00:28:26 145.935-145.965
CUBESAT XI-V 24 Jun 00:29:37 00:33:15 23° 27° (NNE) 00:36:54 437.345
AO-85 24 Jun 00:33:38 00:37:21 41° 168° (SSE) 00:41:07 145.980
NO-84 24 Jun 00:35:19 00:36:07 10° 162° (SSE) 00:36:55 435.350 FM
DUCHIFAT 1 24 Jun 00:36:39 00:40:48 46° 101° (ESE) 00:44:55 145.980
50 SAT 24 Jun 00:36:40 00:39:49 35° 261° (W) 00:43:00 437.505
DX 1 24 Jun 00:39:00 00:43:14 49° 256° (WSW) 00:47:30 434.975-435.025
STARS 24 Jun 00:41:26 00:44:40 20° 17° (NNE) 00:47:54 437.465
NANOSAT C BR1 24 Jun 00:44:05 00:48:20 53° 104° (ESE) 00:52:32 145.865
Gurwin Techsat 1B 24 Jun 00:48:48 00:52:27 18° 77° (ENE) 00:56:05 435.225
SPROUT 24 Jun 00:50:13 00:53:52 26° 270° (W) 00:57:32 437.525
UKube-1 24 Jun 01:00:16 01:04:26 46° 258° (WSW) 01:08:38 .
BEESAT 2 24 Jun 01:01:57 01:05:43 37° 159° (SSE) 01:09:29 435.950
TIGRISAT 24 Jun 01:03:25 01:07:49 40° 314° (NW) 01:12:12 435.000
POLYITAN 1 24 Jun 01:20:01 01:24:22 86° 113° (ESE) 01:28:42 437.675
AIST 2D 24 Jun 01:23:57 01:27:25 51° 302° (WNW) 01:30:52 435.315
AO-7 24 Jun 01:24:26 01:29:05 15° 61° (ENE) 01:33:43 .
M-CUBED/EXP-1 PRIME 24 Jun 01:25:21 01:28:24 32° 328° (NNW) 01:31:36 437.505
MOZHAYETS 4 24 Jun 01:29:26 01:34:03 63° 57° (ENE) 01:38:40
ITUPSAT 1 24 Jun 01:30:15 01:35:06 82° 62° (ENE) 01:39:57 437.325
QB50P2 24 Jun 01:30:46 01:35:07 81° 297° (WNW) 01:39:25 145.880/145.840
PRISM 24 Jun 01:31:08 01:34:38 28° 322° (NW) 01:38:08 437.425
O/OREOS (USA 219) 24 Jun 01:38:23 01:42:56 70° 343° (NNW) 01:47:27 437.305
FO-29 24 Jun 01:40:56 01:47:47 47° 325° (NW) 01:55:08 435.910
KKS-1 24 Jun 01:41:00 01:45:01 34° 40° (NE) 01:49:02 437.445
BEESAT 24 Jun 01:41:37 01:46:26 89° 249° (WSW) 01:51:18 436.000
BEESAT 3 24 Jun 01:44:36 01:48:29 45° 179° (S) 01:52:21 437.485
UNISAT 6 24 Jun 01:45:03 01:49:07 29° 325° (NW) 01:53:09 437.425
RS-15 24 Jun 01:47:27 01:59:44 73° 178° (S) 02:11:45 29.354- 29.394
Oscar 19 24 Jun 01:50:17 01:55:08 40° 97° (E) 01:59:58 437.125/150
VELOX 1 24 Jun 01:52:48 01:55:06 14° 284° (WNW) 01:57:24 145.980
BUGSAT 1 24 Jun 01:54:30 01:58:47 67° 108° (ESE) 02:03:03 437.445
STRAND 1 24 Jun 01:54:53 01:58:52 23° 5° (N) 02:02:51 437.568
EO-79 24 Jun 01:56:04 02:00:21 63° 301° (WNW) 02:04:36 145.935-145.965
CUBESAT XI-V 24 Jun 02:05:28 02:09:54 45° 50° (NE) 02:14:19 437.345
YUBILEINY 24 Jun 02:08:52 02:17:10 42° 334° (NNW) 02:25:29 435.215
NO-84 24 Jun 02:10:30 02:12:17 12° 183° (S) 02:14:04 435.350 FM
DUCHIFAT 1 24 Jun 02:12:26 02:16:39 58° 303° (WNW) 02:20:51 145.980
AO-85 24 Jun 02:13:33 02:17:16 41° 192° (SSW) 02:21:05 145.980
STARS 24 Jun 02:16:09 02:20:07 33° 40° (NE) 02:24:06 437.465
DX 1 24 Jun 02:17:40 02:20:27 16° 279° (W) 02:23:14 434.975-435.025
NANOSAT C BR1 24 Jun 02:19:56 02:24:07 51° 306° (NW) 02:28:16 145.865
ITAMSAT 1 24 Jun 02:23:39 02:27:08 18° 77° (ENE) 02:30:36 435.822/435.867
Gurwin Techsat 1B 24 Jun 02:28:31 02:33:42 48° 101° (E) 02:38:52 435.225
UKube-1 24 Jun 02:38:59 02:41:33 15° 281° (W) 02:44:07 .
BEESAT 2 24 Jun 02:39:07 02:43:01 45° 182° (S) 02:46:57 435.950
TIGRISAT 24 Jun 02:40:02 02:43:40 22° 337° (NNW) 02:47:17 435.000
POLYITAN 1 24 Jun 02:55:58 02:59:55 35° 316° (NW) 03:03:52 437.675
AIST 2D 24 Jun 02:57:28 03:00:06 20° 323° (NW) 03:02:42 435.315
M-CUBED/EXP-1 PRIME 24 Jun 02:59:44 03:02:16 20° 350° (N) 03:04:53 437.505
PRISM 24 Jun 03:06:19 03:08:59 17° 345° (NNW) 03:11:38 437.425
QB50P2 24 Jun 03:06:44 03:10:34 31° 319° (NW) 03:14:23 145.880/145.840
MOZHAYETS 4 24 Jun 03:06:58 03:11:27 45° 260° (W) 03:15:57
ITUPSAT 1 24 Jun 03:08:57 03:13:24 36° 264° (W) 03:17:53 437.325
KKS-1 24 Jun 03:16:47 03:21:15 83° 60° (ENE) 03:25:45 437.445
AO-7 24 Jun 03:17:20 03:24:53 35° 89° (E) 03:32:24 .
O/OREOS (USA 219) 24 Jun 03:18:14 03:22:45 64° 8° (N) 03:27:14 437.305
BEESAT 24 Jun 03:20:31 03:24:48 31° 267° (W) 03:29:07 436.000
UNISAT 6 24 Jun 03:21:26 03:24:46 19° 348° (NNW) 03:28:06 437.425
BEESAT 3 24 Jun 03:21:53 03:25:36 35° 203° (SSW) 03:29:18 437.485
FO-29 24 Jun 03:25:24 03:31:40 35° 350° (N) 03:38:24 435.910
Oscar 19 24 Jun 03:29:45 03:34:55 78° 300° (WNW) 03:40:03 437.125/150
BUGSAT 1 24 Jun 03:30:02 03:34:04 42° 311° (NW) 03:38:07 437.445
EO-79 24 Jun 03:31:59 03:35:37 27° 324° (NW) 03:39:15 145.935-145.965
STRAND 1 24 Jun 03:32:30 03:36:58 30° 29° (NNE) 03:41:27 437.568
CUBESAT XI-V 24 Jun 03:42:36 03:47:13 68° 252° (WSW) 03:51:51 437.345
DUCHIFAT 1 24 Jun 03:48:15 03:51:47 25° 326° (NW) 03:55:18 145.980
STARS 24 Jun 03:51:44 03:56:09 83° 64° (ENE) 04:00:37 437.465
AO-85 24 Jun 03:53:45 03:57:01 25° 214° (SW) 04:00:23 145.980
NANOSAT C BR1 24 Jun 03:55:47 03:59:13 24° 329° (NNW) 04:02:38 145.865
RS-15 24 Jun 03:59:29 04:11:32 63° 209° (SSW) 04:23:14 29.354- 29.394
ITAMSAT 1 24 Jun 04:02:50 04:07:54 46° 101° (E) 04:12:58 435.822/435.867
YUBILEINY 24 Jun 04:08:28 04:16:31 36° 5° (N) 04:24:35 435.215
Gurwin Techsat 1B 24 Jun 04:08:39 04:13:58 69° 304° (NW) 04:19:17 435.225
TIGRISAT 24 Jun 04:15:55 04:19:08 19° 1° (N) 04:22:22 435.000
BEESAT 2 24 Jun 04:16:36 04:20:18 33° 205° (SSW) 04:24:00 435.950
DOVE 4 24 Jun 04:25:13 04:27:58 15° 76° (ENE) 04:30:46 437.250
AIST 2D 24 Jun 04:30:57 04:32:16 12° 346° (NNW) 04:33:34 435.315
POLYITAN 1 24 Jun 04:31:45 04:34:52 20° 338° (NNW) 04:37:58 437.675
M-CUBED/EXP-1 PRIME 24 Jun 04:33:26 04:36:00 21° 13° (NNE) 04:38:38 437.505
PRISM 24 Jun 04:40:36 04:43:05 16° 9° (N) 04:45:36 437.425
QB50P2 24 Jun 04:42:28 04:45:27 19° 342° (NNW) 04:48:25 145.880/145.840
MOZHAYETS 4 24 Jun 04:46:54 04:49:46 16° 283° (WNW) 04:52:38
ITUPSAT 1 24 Jun 04:50:31 04:52:41 13° 288° (WNW) 04:54:50 437.325
CUTE-I 24 Jun 04:53:31 04:56:29 15° 71° (ENE) 04:59:26 437.470
KKS-1 24 Jun 04:54:16 04:58:17 32° 265° (W) 05:02:21 437.445
UNISAT 6 24 Jun 04:56:53 05:00:13 20° 12° (NNE) 05:03:34 437.425
O/OREOS (USA 219) 24 Jun 04:57:52 05:02:24 85° 214° (SW) 05:06:55 437.305
BEESAT 3 24 Jun 04:59:33 05:02:23 18° 225° (SW) 05:05:12 437.485
BEESAT 24 Jun 05:02:49 05:04:10 11° 291° (WNW) 05:05:30 436.000
BUGSAT 1 24 Jun 05:05:29 05:08:43 21° 333° (NNW) 05:11:57 437.445
EO-79 24 Jun 05:07:33 05:10:23 17° 347° (NNW) 05:13:12 145.935-145.965
FO-29 24 Jun 05:09:11 05:15:21 36° 15° (NNE) 05:22:04 435.910
Oscar 19 24 Jun 05:09:11 05:13:51 36° 324° (NW) 05:18:31 437.125/150
STRAND 1 24 Jun 05:10:28 05:15:32 59° 52° (NE) 05:20:38 437.568
AO-7 24 Jun 05:10:39 05:19:05 72° 115° (ESE) 05:27:29 .
HO-68 24 Jun 05:17:43 05:21:18 14° 61° (ENE) 05:24:53 435.675
CUBESAT XI-V 24 Jun 05:21:44 05:25:25 23° 275° (W) 05:29:07 437.345
DUCHIFAT 1 24 Jun 05:23:40 05:26:24 17° 349° (N) 05:29:09 145.980
NUDT-PHONESAT 24 Jun 05:26:33 05:28:35 14° 79° (E) 05:30:34 437.300
STARS 24 Jun 05:28:59 05:32:58 32° 265° (W) 05:36:59 437.465
NANOSAT C BR1 24 Jun 05:31:08 05:33:51 17° 352° (N) 05:36:33 145.865
AO-85 24 Jun 05:35:29 05:36:17 10° 237° (WSW) 05:37:06 145.980
XW-2F 24 Jun 05:36:13 05:38:52 18° 84° (E) 05:41:29 145.980 - 146.000
XW-2D 24 Jun 05:38:52 05:41:41 19° 85° (E) 05:44:27 145.860 - 145.880
ITAMSAT 1 24 Jun 05:42:28 05:47:43 70° 304° (NW) 05:52:56 435.822/435.867
LilacSat-2 24 Jun 05:44:55 05:47:53 21° 87° (E) 05:50:50 437.200
XW-2B 24 Jun 05:47:46 05:50:43 21° 87° (E) 05:53:39 145.730 - 145.750
Gurwin Techsat 1B 24 Jun 05:48:40 05:53:26 34° 328° (NNW) 05:58:11 435.225
TIGRISAT 24 Jun 05:50:57 05:54:38 23° 24° (NNE) 05:58:20 435.000
BEESAT 2 24 Jun 05:54:32 05:57:11 17° 228° (SW) 05:59:51 435.950
CUTE 1.7 + AOD 2 24 Jun 05:59:39 06:01:04 11° 72° (ENE) 06:02:30 437.475
DOVE 4 24 Jun 06:02:23 06:06:49 43° 98° (E) 06:11:29 437.250
XW-2C 24 Jun 06:03:04 06:06:18 25° 91° (E) 06:09:31 145.795 - 145.815
AIST 2D 24 Jun 06:03:12 06:04:14 11° 9° (N) 06:05:17 435.315
POLYITAN 1 24 Jun 06:06:47 06:09:28 16° 2° (N) 06:12:09 437.675
M-CUBED/EXP-1 PRIME 24 Jun 06:06:52 06:09:55 37° 36° (NE) 06:13:03 437.505
YUBILEINY 24 Jun 06:07:10 06:15:42 47° 36° (NE) 06:24:12 435.215
RS-15 24 Jun 06:11:20 06:22:13 40° 240° (WSW) 06:32:46 29.354- 29.394
PRISM 24 Jun 06:14:06 06:17:21 23° 31° (NNE) 06:20:36 437.425
QB50P2 24 Jun 06:17:21 06:20:02 16° 5° (N) 06:22:44 145.880/145.840
KAITUO 1B 24 Jun 06:21:35 06:24:53 28° 93° (E) 06:28:09 145.475/437.950
UWE-3 24 Jun 06:30:07 06:31:26 11° 67° (ENE) 06:32:44 435.000/436.395/437.385
UNISAT 6 24 Jun 06:31:50 06:35:53 29° 35° (NE) 06:39:57 437.425
CUTE-I 24 Jun 06:33:03 06:38:06 39° 96° (E) 06:43:08 437.470
KKS-1 24 Jun 06:35:01 06:36:15 11° 289° (WNW) 06:37:31 437.445
O/OREOS (USA 219) 24 Jun 06:37:23 06:41:32 37° 236° (SW) 06:45:40 437.305
BUGSAT 1 24 Jun 06:40:20 06:42:57 16° 356° (N) 06:45:34 437.445
EO-79 24 Jun 06:42:09 06:44:56 17° 10° (N) 06:47:42 145.935-145.965
AAUSAT CUBESAT 2 24 Jun 06:42:29 06:43:00 10° 71° (ENE) 06:43:32 437.432
XW-2A 24 Jun 06:43:30 06:45:10 13° 80° (E) 06:46:50 145.665 - 145.685
Oscar 19 24 Jun 06:48:10 06:52:14 24° 347° (NNW) 06:56:15 437.125/150
STRAND 1 24 Jun 06:49:47 06:54:52 56° 256° (WSW) 07:00:00 437.568
FO-29 24 Jun 06:52:52 06:59:20 52° 41° (NE) 07:06:34 435.910
DUCHIFAT 1 24 Jun 06:58:06 07:00:53 17° 12° (NNE) 07:03:40 145.980
NUDT-PHONESAT 24 Jun 06:59:44 07:03:24 47° 102° (ESE) 07:07:00 437.300
AO-7 24 Jun 07:03:44 07:12:02 67° 322° (NW) 07:20:19 .
HO-68 24 Jun 07:05:09 07:11:35 33° 88° (E) 07:17:59 435.675
NANOSAT C BR1 24 Jun 07:05:28 07:08:21 18° 15° (NNE) 07:11:14 145.865
STARS 24 Jun 07:09:35 07:10:43 11° 289° (WNW) 07:11:52 437.465
XW-2F 24 Jun 07:09:57 07:13:46 61° 107° (ESE) 07:17:30 145.980 - 146.000
XW-2D 24 Jun 07:12:45 07:16:34 67° 108° (ESE) 07:20:21 145.860 - 145.880
LilacSat-2 24 Jun 07:18:57 07:22:49 74° 109° (ESE) 07:26:37 437.200
SEEDS 24 Jun 07:20:08 07:23:33 24° 87° (E) 07:26:58 437.485
XW-2B 24 Jun 07:21:42 07:25:33 74° 110° (ESE) 07:29:21 145.730 - 145.750
ITAMSAT 1 24 Jun 07:22:00 07:26:43 34° 327° (NNW) 07:31:25 435.822/435.867
TIGRISAT 24 Jun 07:26:06 07:30:31 42° 48° (NE) 07:34:59 435.000
CUBEBUG 2 24 Jun 07:27:56 07:32:01 27° 87° (E) 07:36:03 437.445
Gurwin Techsat 1B 24 Jun 07:28:07 07:32:20 24° 352° (N) 07:36:34 435.225
AO-73 24 Jun 07:30:16 07:32:58 15° 75° (ENE) 07:35:37 145.935
AIST 2D 24 Jun 07:33:59 07:36:20 17° 32° (NNE) 07:38:42 435.315
CUTE 1.7 + AOD 2 24 Jun 07:34:17 07:38:11 35° 95° (E) 07:42:04 437.475
XW-2C 24 Jun 07:37:09 07:41:00 89° 292° (WNW) 07:44:48 145.795 - 145.815
DOVE 4 24 Jun 07:40:14 07:44:48 67° 300° (WNW) 07:49:38 437.250
POLYITAN 1 24 Jun 07:40:52 07:44:06 21° 25° (NNE) 07:47:21 437.675
M-CUBED/EXP-1 PRIME 24 Jun 07:41:03 07:44:19 70° 239° (WSW) 07:47:40 437.505
PRISM 24 Jun 07:48:06 07:52:03 52° 54° (NE) 07:56:02 437.425
QB50P2 24 Jun 07:51:22 07:54:43 22° 29° (NNE) 07:58:04 145.880/145.840
KAITUO 1B 24 Jun 07:55:31 07:59:18 79° 295° (WNW) 08:03:02 145.475/437.950
Oscar 11 24 Jun 07:59:28 08:02:26 18° 80° (E) 08:05:23 .
ZACube-1 24 Jun 08:03:58 08:07:39 23° 85° (E) 08:11:17 437.345
UWE-3 24 Jun 08:05:11 08:09:24 31° 91° (E) 08:13:31 435.000/436.395/437.385
UNISAT 6 24 Jun 08:07:26 08:12:04 64° 58° (ENE) 08:16:46 437.425
BUGSAT 1 24 Jun 08:14:10 08:17:08 19° 19° (NNE) 08:20:06 437.445
XW-2A 24 Jun 08:15:23 08:18:46 46° 103° (ESE) 08:22:06 145.665 - 145.685
O/OREOS (USA 219) 24 Jun 08:17:42 08:19:52 13° 259° (WSW) 08:22:01 437.305
